Altus, OK

3:48 PM CDT on August 21, 2017 (GMT -0500)
Altus Municipal

Weather History for KAXS - September, 2013

Change the Weather History Date:

Saturday, September 7, 2013

  Actual Average (KLTS) Record (KLTS)
Temperature  
Mean Temperature 88 °F -  
Max Temperature 102 °F 88 °F 107 °F (2012)
Min Temperature 73 °F 65 °F 59 °F (2011)
Cooling Degree Days 22    
Growing Degree Days 38 (Base 50)    
Moisture  
Dew Point 58 °F    
Average Humidity 40    
Maximum Humidity 65    
Minimum Humidity 18    
Precipitation  
Precipitation 0.00 in - - ()
Sea Level Pressure  
Sea Level Pressure 30.00 in    
Wind  
Wind Speed 6 mph (SE)    
Max Wind Speed 24 mph    
Max Gust Speed 29 mph    
Visibility 10 miles    
Events Thunderstorm    
Averages and records for this station are not official NWS values.
T = Trace of Precipitation, MM = Missing Value Source: NWS Daily Summary

Daily Weather History Graph

Daily Weather History Graph

Search for Another Location

Airport or City:

Trip Planner

Search our weather history database for the weather conditions in past years. The results will help you decide how hot, cold, wet, or windy it might be!

Date:

Astronomy

Sep. 07, 2013 Rise Set
Actual Time 7:14 AM CDT 7:55 PM CDT
Civil Twilight 6:49 AM CDT 8:20 PM CDT
Nautical Twilight 6:19 AM CDT 8:50 PM CDT
Astronomical Twilight 5:48 AM CDT 9:21 PM CDT
Moon 9:23 AM CDT (9/7) 9:03 PM CDT (9/7)
Length of Visible Light 13h 31m
Length of Day
12h 40m
Waxing Crescent, 5% of the Moon is Illuminated
Sep 7
Waxing Crescent
Sep 12
First Quarter
Sep 19
Full
Sep 26
Last Quarter
Oct 4
New

Hourly Weather History & Observations

Time (CDT) Temp. Heat Index Dew Point Humidity Pressure Visibility Wind Dir Wind Speed Gust Speed Precip Events Conditions
12:21 AM 84.2 °F 83.8 °F 59.0 °F 42% 30.02 in - SSE 9.2 mph - N/A   Clear
12:38 AM 82.4 °F 82.5 °F 59.0 °F 45% 30.02 in 10.0 mi SE 6.9 mph - N/A   Clear
12:58 AM 82.4 °F 82.5 °F 59.0 °F 45% 30.02 in 10.0 mi SE 6.9 mph - N/A   Clear
1:20 AM 82.4 °F 82.5 °F 59.0 °F 45% 30.02 in 10.0 mi SE 5.8 mph - N/A   Clear
1:38 AM 80.6 °F 81.1 °F 59.0 °F 48% 30.03 in - ESE 6.9 mph - N/A   Clear
1:58 AM 80.6 °F 81.1 °F 59.0 °F 48% 30.02 in - ESE 6.9 mph - N/A   Clear
2:21 AM 80.6 °F 81.1 °F 59.0 °F 48% 30.03 in 10.0 mi ESE 6.9 mph - N/A   Clear
2:41 AM 78.8 °F - 60.8 °F 54% 30.02 in 10.0 mi ESE 5.8 mph - N/A   Clear
2:58 AM 78.8 °F - 60.8 °F 54% 30.02 in 10.0 mi ESE 5.8 mph - N/A   Clear
3:18 AM 77.0 °F - 60.8 °F 57% 30.02 in 10.0 mi ESE 5.8 mph - N/A   Clear
3:58 AM 77.0 °F - 60.8 °F 57% 30.02 in 10.0 mi ESE 5.8 mph - N/A   Clear
4:18 AM 75.2 °F - 60.8 °F 61% 30.02 in 10.0 mi East 5.8 mph - N/A   Clear
4:38 AM 75.2 °F - 60.8 °F 61% 30.02 in 10.0 mi ESE 4.6 mph - N/A   Clear
4:58 AM 75.2 °F - 60.8 °F 61% 30.02 in 10.0 mi ESE 4.6 mph - N/A   Clear
5:18 AM 75.2 °F - 60.8 °F 61% 30.02 in 10.0 mi ESE 4.6 mph - N/A   Clear
5:38 AM 75.2 °F - 60.8 °F 61% 30.02 in 10.0 mi East 5.8 mph - N/A   Clear
5:58 AM 75.2 °F - 60.8 °F 61% 30.02 in 10.0 mi ESE 5.8 mph - N/A   Clear
6:18 AM 73.4 °F - 60.8 °F 65% 30.02 in 10.0 mi East 5.8 mph - N/A   Clear
6:40 AM 73.4 °F - 60.8 °F 65% 30.03 in 10.0 mi ESE 5.8 mph - N/A   Clear
6:58 AM 73.4 °F - 60.8 °F 65% 30.03 in 10.0 mi ESE 6.9 mph - N/A   Clear
7:19 AM 73.4 °F - 60.8 °F 65% 30.03 in 10.0 mi East 6.9 mph - N/A   Clear
7:39 AM 73.4 °F - 60.8 °F 65% 30.04 in 10.0 mi East 5.8 mph - N/A   Clear
8:00 AM 75.2 °F - 60.8 °F 61% 30.04 in 10.0 mi East 5.8 mph - N/A   Clear
8:19 AM 77.0 °F - 60.8 °F 57% 30.04 in 10.0 mi ESE 4.6 mph - N/A   Clear
8:39 AM 78.8 °F - 60.8 °F 54% 30.04 in 10.0 mi SE 5.8 mph - N/A   Clear
8:59 AM 80.6 °F 81.5 °F 60.8 °F 51% 30.04 in 10.0 mi SSE 5.8 mph - N/A   Clear
9:19 AM 82.4 °F 82.9 °F 60.8 °F 48% 30.04 in 10.0 mi SSE 5.8 mph - N/A   Clear
9:39 AM 84.2 °F 84.4 °F 60.8 °F 45% 30.05 in 10.0 mi SSE 4.6 mph - N/A   Clear
9:59 AM 86.0 °F 85.4 °F 59.0 °F 40% 30.06 in - SSE 5.8 mph - N/A   Clear
10:20 AM 87.8 °F 86.1 °F 55.4 °F 33% 30.06 in - SSE 4.6 mph - N/A   Clear
10:39 AM 91.4 °F 89.9 °F 57.2 °F 31% 30.06 in 10.0 mi Calm Calm - N/A   Clear
10:59 AM 91.4 °F 89.4 °F 55.4 °F 29% 30.06 in 10.0 mi Calm Calm - N/A   Clear
11:19 AM 93.2 °F 91.3 °F 55.4 °F 28% 30.06 in - Calm Calm - N/A   Clear
11:39 AM 95.0 °F 93.0 °F 55.4 °F 26% 30.06 in - SSW 5.8 mph - N/A   Clear
11:59 AM 96.8 °F 94.4 °F 53.6 °F 23% 30.05 in 10.0 mi SW 4.6 mph - N/A   Clear
12:19 PM 96.8 °F 94.4 °F 53.6 °F 23% 30.05 in 10.0 mi SW 5.8 mph - N/A   Clear
12:39 PM 98.6 °F 96.4 °F 53.6 °F 22% 30.04 in - SSE 6.9 mph - N/A   Clear
12:59 PM 98.6 °F 96.4 °F 53.6 °F 22% 30.03 in 10.0 mi SSW 8.1 mph - N/A   Clear
1:19 PM 100.4 °F 98.4 °F 53.6 °F 21% 30.03 in 10.0 mi South 5.8 mph - N/A   Clear
1:39 PM 100.4 °F 98.4 °F 53.6 °F 21% 30.02 in - Calm Calm - N/A   Clear
1:59 PM 98.6 °F 96.4 °F 53.6 °F 22% 30.01 in 10.0 mi Calm Calm - N/A   Clear
2:19 PM 102.2 °F 100.4 °F 53.6 °F 20% 30.00 in 10.0 mi SE 9.2 mph - N/A   Clear
2:41 PM 100.4 °F 98.4 °F 53.6 °F 21% 29.99 in 10.0 mi SW 8.1 mph - N/A   Clear
2:59 PM 100.4 °F 98.4 °F 53.6 °F 21% 29.98 in 10.0 mi Calm Calm - N/A   Clear
3:21 PM 102.2 °F 100.4 °F 53.6 °F 20% 29.97 in 10.0 mi South 8.1 mph 17.3 mph N/A   Clear
3:39 PM 100.4 °F 98.4 °F 53.6 °F 21% 29.96 in 10.0 mi South 5.8 mph - N/A   Clear
3:59 PM 102.2 °F 100.4 °F 53.6 °F 20% 29.95 in 10.0 mi South 12.7 mph 19.6 mph N/A   Clear
4:19 PM 100.4 °F 98.4 °F 53.6 °F 21% 29.95 in 10.0 mi SE 3.5 mph - N/A   Clear
4:39 PM 102.2 °F 100.4 °F 53.6 °F 20% 29.94 in 10.0 mi SSE 9.2 mph - N/A   Clear
4:59 PM 102.2 °F - 51.8 °F 18% 29.94 in 10.0 mi SSE 6.9 mph - N/A   Clear
5:20 PM 102.2 °F - 51.8 °F 18% 29.93 in 10.0 mi South 5.8 mph - N/A   Clear
5:39 PM 102.2 °F - 51.8 °F 18% 29.93 in 10.0 mi ESE 3.5 mph - N/A   Clear
5:59 PM 102.2 °F 100.4 °F 53.6 °F 20% 29.93 in 10.0 mi SSE 11.5 mph - N/A   Clear
6:19 PM 102.2 °F 100.4 °F 53.6 °F 20% 29.93 in 10.0 mi SSE 5.8 mph - N/A   Clear
6:39 PM 100.4 °F - 51.8 °F 20% 29.93 in 10.0 mi SSE 4.6 mph - N/A   Clear
7:19 PM 98.6 °F 96.4 °F 53.6 °F 22% 29.93 in 10.0 mi SE 11.5 mph - N/A   Clear
7:39 PM 96.8 °F 95.1 °F 55.4 °F 25% 29.94 in 10.0 mi SSE 19.6 mph 24.2 mph N/A   Clear
8:19 PM 86.0 °F 86.1 °F 60.8 °F 43% 29.96 in 10.0 mi SSE 24.2 mph 28.8 mph N/A Thunderstorm Clear
8:39 PM 84.2 °F 85.0 °F 62.6 °F 48% 29.96 in 10.0 mi South 17.3 mph 26.5 mph N/A   Clear
8:59 PM 84.2 °F 84.4 °F 60.8 °F 45% 29.96 in 10.0 mi South 11.5 mph - N/A Thunderstorm Clear
9:19 PM 87.8 °F 87.6 °F 60.8 °F 40% 29.97 in 10.0 mi South 9.2 mph - N/A   Clear
9:39 PM 84.2 °F 85.0 °F 62.6 °F 48% 29.98 in 10.0 mi South 6.9 mph - N/A   Clear
9:59 PM 82.4 °F 83.4 °F 62.6 °F 51% 29.98 in 10.0 mi SSE 4.6 mph - N/A   Clear
10:19 PM 82.4 °F 83.4 °F 62.6 °F 51% 29.99 in 10.0 mi WSW 3.5 mph - N/A   Clear
10:41 PM 80.6 °F 81.8 °F 62.6 °F 54% 29.99 in 10.0 mi Calm Calm - N/A   Clear
10:59 PM 82.4 °F 83.4 °F 62.6 °F 51% 29.99 in 5.0 mi Calm Calm - N/A   Haze
11:19 PM 82.4 °F 83.4 °F 62.6 °F 51% 29.99 in 10.0 mi ESE 4.6 mph - N/A   Clear
11:38 PM 80.6 °F 81.8 °F 62.6 °F 54% 29.99 in 10.0 mi ESE 5.8 mph - N/A   Clear